TimeGMT,TemperatureF,Dew PointF,Humidity,Sea Level PressureIn,VisibilityMPH,Wind Direction,Wind SpeedMPH,Gust SpeedMPH,PrecipitationIn,Events,Conditions,WindDirDegrees,DateUTC
12:00 AM,41,34,68,29.92,19,NW,24.6,,,,Partly Cloudy,310,2013-02-06 00:00:00
12:00 AM,41.0,33.8,76,29.89,6.2,NW,24.2,38.0,N/A,,Partly Cloudy,310,2013-02-06 00:00:00
12:30 AM,41.0,33.8,76,29.92,6.2,NW,23.0,-,N/A,,Partly Cloudy,320,2013-02-06 00:30:00
1:00 AM,41.0,33.8,76,29.92,6.2,NW,21.9,-,N/A,,Partly Cloudy,320,2013-02-06 01:00:00
1:30 AM,39.2,33.8,81,29.92,6.2,NW,21.9,34.5,N/A,,Partly Cloudy,310,2013-02-06 01:30:00
2:00 AM,39.2,33.8,81,29.92,6.2,NW,24.2,-,N/A,,Partly Cloudy,310,2013-02-06 02:00:00
2:30 AM,39.2,33.8,81,29.92,6.2,NW,26.5,-,N/A,,Partly Cloudy,320,2013-02-06 02:30:00
3:00 AM,39.2,32.0,75,29.95,6.2,NW,28.8,40.3,N/A,,Partly Cloudy,320,2013-02-06 03:00:00
3:30 AM,39.2,32.0,75,29.95,6.2,NW,28.8,40.3,N/A,,Partly Cloudy,320,2013-02-06 03:30:00
4:00 AM,39.2,32.0,75,29.98,6.2,NW,28.8,-,N/A,,Partly Cloudy,320,2013-02-06 04:00:00
4:30 AM,39.2,32.0,75,30.01,6.2,NW,26.5,38.0,N/A,,Partly Cloudy,320,2013-02-06 04:30:00
5:00 AM,39.2,32.0,75,30.01,6.2,NNW,27.6,43.7,N/A,,Partly Cloudy,330,2013-02-06 05:00:00
5:30 AM,39.2,32.0,75,30.04,6.2,NNW,25.3,38.0,N/A,,Partly Cloudy,330,2013-02-06 05:30:00
6:00 AM,38,32,72,30.07,19,NNW,24.6,,,,Scattered Clouds,330,2013-02-06 06:00:00
6:00 AM,39.2,32.0,75,30.04,6.2,NNW,24.2,36.8,N/A,,Partly Cloudy,330,2013-02-06 06:00:00
6:30 AM,37.4,32.0,81,30.06,6.2,NNW,26.5,-,N/A,,Partly Cloudy,330,2013-02-06 06:30:00
7:00 AM,37.4,32.0,81,30.06,6.2,NW,25.3,-,N/A,,Partly Cloudy,320,2013-02-06 07:00:00
7:30 AM,37.4,32.0,81,30.06,6.2,NW,27.6,39.1,N/A,,Partly Cloudy,320,2013-02-06 07:30:00
8:00 AM,37.4,33.8,87,30.09,6.2,NW,27.6,-,N/A,,Partly Cloudy,320,2013-02-06 08:00:00
8:30 AM,37.4,32.0,81,30.12,6.2,NW,26.5,38.0,N/A,,Partly Cloudy,320,2013-02-06 08:30:00
9:00 AM,37.4,33.8,87,30.12,6.2,NNW,23.0,-,N/A,,Partly Cloudy,330,2013-02-06 09:00:00
9:30 AM,39.2,33.8,81,30.15,6.2,NNW,23.0,34.5,N/A,,Partly Cloudy,330,2013-02-06 09:30:00
10:00 AM,39.2,33.8,81,30.15,6.2,NNW,23.0,35.7,N/A,,Partly Cloudy,330,2013-02-06 10:00:00
10:30 AM,41.0,33.8,76,30.18,6.2,NNW,23.0,38.0,N/A,,Partly Cloudy,330,2013-02-06 10:30:00
11:00 AM,41.0,33.8,76,30.21,6.2,NNW,20.7,32.2,N/A,,Partly Cloudy,330,2013-02-06 11:00:00
11:30 AM,41.0,33.8,76,30.21,6.2,NNW,17.3,-,N/A,,Partly Cloudy,340,2013-02-06 11:30:00
12:00 PM,42,34,63,30.26,22,NNW,15.7,,,,Scattered Clouds,330,2013-02-06 12:00:00
12:00 PM,42.8,33.8,70,30.21,6.2,NNW,16.1,-,N/A,,Partly Cloudy,330,2013-02-06 12:00:00
12:30 PM,44.6,33.8,66,30.24,6.2,NNW,18.4,-,N/A,,Scattered Clouds,330,2013-02-06 12:30:00
1:00 PM,44.6,33.8,66,30.24,6.2,NNW,17.3,-,N/A,,Scattered Clouds,330,2013-02-06 13:00:00
1:30 PM,44.6,33.8,66,30.24,6.2,NNW,21.9,-,N/A,,Mostly Cloudy,340,2013-02-06 13:30:00
2:00 PM,44.6,33.8,66,30.24,6.2,NNW,24.2,-,N/A,,Scattered Clouds,330,2013-02-06 14:00:00
2:30 PM,44.6,33.8,66,30.24,6.2,NNW,21.9,35.7,N/A,,Scattered Clouds,340,2013-02-06 14:30:00
3:00 PM,42.8,33.8,70,30.24,6.2,NNW,21.9,33.4,N/A,,Partly Cloudy,330,2013-02-06 15:00:00
3:30 PM,42.8,33.8,70,30.27,6.2,NW,13.8,-,N/A,,Scattered Clouds,320,2013-02-06 15:30:00
4:00 PM,42.8,32.0,66,30.27,6.2,NNW,13.8,-,N/A,,Scattered Clouds,340,2013-02-06 16:00:00
4:30 PM,41.0,33.8,76,30.27,6.2,NW,16.1,-,N/A,,Scattered Clouds,320,2013-02-06 16:30:00
5:00 PM,41.0,33.8,76,30.27,6.2,NW,12.7,-,N/A,Rain,Light Rain Showers,320,2013-02-06 17:00:00
5:30 PM,39.2,33.8,81,30.30,6.2,NW,10.4,-,N/A,,Partly Cloudy,310,2013-02-06 17:30:00
6:00 PM,39,33,70,30.33,25,NW,15.7,,,,Partly Cloudy,320,2013-02-06 18:00:00
6:00 PM,39.2,32.0,75,30.30,6.2,NW,15.0,-,N/A,,Partly Cloudy,320,2013-02-06 18:00:00
6:30 PM,37.4,33.8,87,30.30,6.2,WNW,11.5,-,N/A,,Partly Cloudy,300,2013-02-06 18:30:00
7:00 PM,37.4,33.8,87,30.30,6.2,NW,12.7,-,N/A,,Partly Cloudy,310,2013-02-06 19:00:00
7:30 PM,37.4,33.8,87,30.33,6.2,West,5.8,-,N/A,,Partly Cloudy,270,2013-02-06 19:30:00
8:00 PM,37.4,33.8,87,30.33,6.2,NW,9.2,-,N/A,,Partly Cloudy,310,2013-02-06 20:00:00
8:30 PM,37.4,33.8,87,30.33,6.2,NW,9.2,-,N/A,,Partly Cloudy,310,2013-02-06 20:30:00
9:00 PM,37.4,33.8,87,30.33,6.2,NW,9.2,-,N/A,,Partly Cloudy,310,2013-02-06 21:00:00
9:30 PM,37.4,32.0,81,30.33,6.2,NNW,10.4,-,N/A,,Partly Cloudy,330,2013-02-06 21:30:00
10:00 PM,35.6,32.0,87,30.33,6.2,NW,5.8,-,N/A,,Partly Cloudy,310,2013-02-06 22:00:00
10:30 PM,35.6,30.2,81,30.33,6.2,West,8.1,-,N/A,,Partly Cloudy,280,2013-02-06 22:30:00
11:00 PM,35.6,32.0,87,30.33,6.2,WNW,8.1,-,N/A,,Partly Cloudy,290,2013-02-06 23:00:00
11:30 PM,35.6,32.0,87,30.33,6.2,WNW,9.2,-,N/A,,Partly Cloudy,300,2013-02-06 23:30:00